Overview Statistics Trail Chart Weather Telemetry Raw packets
 

This is the latest recevied weather packets stored in our database for station/object JF7BTK-10. If no packets are shown the sender has not sent any weather packets the latest 10 day(s).

<< 1 2 3 4 5 6 >>
Time Temp. Humidity Pressure Rain* Wind** Luminosity Snow
1788675187 23.33° C 67% 1010.9 hPa 0 mm - - -
1788675052 23.33° C 67% 1011.1 hPa 0 mm - - -
1788674452 23.89° C 67% 1011.1 hPa 0 mm - - -
1788674288 23.89° C 68% 1011.1 hPa 0 mm - - -
1788673388 23.33° C 67% 1011.2 hPa 0 mm - - -
1788673251 23.89° C 67% 1011.4 hPa 0 mm - - -
1788672487 23.89° C 65% 1011.2 hPa 0 mm - - -
1788671588 24.44° C 64% 1011.6 hPa 0 mm - - -
1788670688 24.44° C 65% 1011.8 hPa 0 mm - - -
1788669788 25° C 63% 1011.8 hPa 0 mm - - -
1788668887 25° C 61% 1011.8 hPa 0 mm - - -
1788667988 24.44° C 58% 1012 hPa 0 mm - - -
1788667087 25° C 57% 1012.1 hPa 0 mm - - -
1788666188 25° C 59% 1012.2 hPa 0 mm - - -
1788665288 24.44° C 58% 1012.5 hPa 0 mm - - -
1788664388 24.44° C 57% 1012.6 hPa 0 mm - - -
1788663488 24.44° C 57% 1012.8 hPa 0 mm - - -
1788662588 24.44° C 58% 1012.9 hPa 0 mm - - -
1788661687 23.89° C 61% 1013 hPa 0 mm - - -
1788660787 23.33° C 62% 1013.2 hPa 0 mm - - -
1788659887 23.33° C 62% 1013.4 hPa 0 mm - - -
1788658989 23.33° C 63% 1013.4 hPa 0 mm - - -
1788658088 23.33° C 63% 1013.5 hPa 0 mm - - -
1788657188 23.33° C 63% 1013.7 hPa 0 mm - - -
1788656288 22.22° C 67% 1013.5 hPa 0 mm - - -

* Rain latest hour (hover to see other rain measurements)
** Current wind speed in m/s (hover to see current wind gust speed)